Simultaneous Nadir Overpasses (SNOs) Predictions

Prediction of SNOs between AQUA and METOP-B Satellite Orbit:

Table of predicted SNOs for the next 14.0 days since TLE Epoch: 11/1/2014
Index Date (AQUA) Time (AQUA) Lat,Lon (AQUA) SZA (AQUA ) Date (METOP-B) Time (METOP-B) Lat,Lon (METOP-B) SZA (METOP-B ) Distance(km) Time Diff (sec)
1 11/02/2014 21:10:55 -73.13, 37.91 92.04 11/02/2014 21:09:48 -73.10, 35.40 92.05 81.07 67
2 11/02/2014 22:00:35 73.78,-155.81 88.63 11/02/2014 22:00:15 73.75,-155.78 88.60 3.24 20
3 11/02/2014 22:50:01 -73.81, 11.76 91.33 11/02/2014 22:50:55 -73.83, 11.73 91.31 2.43 54
4 11/05/2014 16:45:18 -73.60, 103.37 90.70 11/05/2014 16:44:05 -73.58, 102.88 90.71 15.52 73
5 11/05/2014 17:34:49 73.78, -89.38 89.50 11/05/2014 17:34:41 73.78, -89.32 89.50 2.23 8
6 11/05/2014 18:24:15 -73.81, 78.20 90.46 11/05/2014 18:25:22 -73.81, 78.09 90.46 3.42 67
7 11/08/2014 12:19:33 -73.70, 169.61 89.76 11/08/2014 12:18:29 -73.70, 169.57 89.76 0.99 64
8 11/08/2014 13:09:02 73.78, -22.94 90.34 11/08/2014 13:09:07 73.79, -22.87 90.35 2.32 5
9 11/08/2014 13:58:33 -74.06, 144.08 89.37 11/08/2014 13:59:44 -74.03, 145.03 89.41 29.25 71
10 11/11/2014 07:53:45 -73.74,-124.03 88.92 11/11/2014 07:52:54 -73.72,-123.99 88.95 2.94 51
11 11/11/2014 08:43:13 73.78, 43.53 91.13 11/11/2014 08:43:32 73.80, 43.55 91.15 3.11 19
12 11/14/2014 03:27:56 -73.72, -57.53 88.19 11/14/2014 03:27:20 -73.72, -57.57 88.18 1.23 36
13 11/14/2014 04:17:25 73.81, 109.90 91.92 11/14/2014 04:17:58 73.80, 109.95 91.91 1.97 33




NCC Satellite Simultaneous Nadir Overpasses (SNOs) Prediction Service
